This is the latest recevied weather packets stored in our database for station/object W0PE-1. If no packets are shown the sender has not sent any weather packets the latest 10 day(s).
| Time | Temp. | Humidity | Pressure | Rain* | Wind** | Luminosity | Snow |
|---|---|---|---|---|---|---|---|
| 1777908636 | 15° C | 81% | 1014.9 hPa | 0 mm | - | - | - |
| 1777907793 | 14.44° C | 83% | 1014.8 hPa | 0 mm | - | - | - |
| 1777906838 | 13.89° C | 84% | 1014.7 hPa | 0 mm | - | - | - |
| 1777905938 | 13.89° C | 84% | 1014.7 hPa | 0 mm | - | - | - |
| 1777905039 | 13.33° C | 84% | 1014.7 hPa | 0 mm | - | - | - |
| 1777904130 | 13.33° C | 84% | 1014.5 hPa | 0 mm | - | - | - |
| 1777903291 | 13.33° C | 84% | 1014.4 hPa | 0 mm | - | - | - |
| 1777902329 | 12.78° C | 83% | 1014.6 hPa | 0 mm | - | - | - |
| 1777901429 | 12.78° C | 83% | 1014.5 hPa | 0 mm | - | - | - |
| 1777900530 | 12.78° C | 82% | 1014.5 hPa | 0 mm | - | - | - |
| 1777899627 | 12.78° C | 82% | 1014.5 hPa | 0 mm | - | - | - |
| 1777898727 | 12.22° C | 81% | 1014.3 hPa | 0 mm | - | - | - |
| 1777897826 | 12.22° C | 80% | 1014.3 hPa | 0 mm | - | - | - |
| 1777896924 | 12.78° C | 79% | 1014.5 hPa | 0 mm | - | - | - |
| 1777896023 | 12.78° C | 79% | 1014.2 hPa | 0 mm | - | - | - |
| 1777895122 | 12.78° C | 78% | 1014.1 hPa | 0 mm | - | - | - |
| 1777894220 | 13.33° C | 78% | 1014.1 hPa | 0 mm | - | - | - |
| 1777893319 | 13.33° C | 77% | 1014.1 hPa | 0 mm | - | - | - |
| 1777892418 | 13.33° C | 77% | 1014 hPa | 0 mm | - | - | - |
| 1777891518 | 13.33° C | 76% | 1013.9 hPa | 0 mm | - | - | - |
| 1777890616 | 13.33° C | 76% | 1013.7 hPa | 0 mm | - | - | - |
| 1777889715 | 13.89° C | 75% | 1013.9 hPa | 0 mm | - | - | - |
| 1777888814 | 13.89° C | 75% | 1013.9 hPa | 0 mm | - | - | - |
| 1777887916 | 13.89° C | 75% | 1013.9 hPa | 0 mm | - | - | - |
| 1777887011 | 14.44° C | 75% | 1013.9 hPa | 0 mm | - | - | - |
* Rain latest hour (hover to see other rain measurements)
** Current wind speed in m/s (hover to see current wind gust speed)